SCP
0 0 0 0 0 0 0 0 0 0 0 0 0 0 0 0 0 0 0 0 0 0 0 0 0 0 0 0 0 0 0 0 0 0 0 0 0 0 0 0 0 0 0 0
0 0 0 0 0 0 0 0 0 0 0 0 0 0 0 0 0 0 0 0 0 0 0 0 0 0 0 0 0 0 0 0 0 0 0 0 0 0 0 0 0 0 0 0
0 0 0 0 0 0 0 0 0 0 0 0 0 0 0 0 0 0 0 0 0 0 0 0 0 0 0 0 0 0 0 0 0 0 0 0 0 0 0 0 0 0 0 0
0 0 0 0 0 0 0 0 0 0 0 0 0 0 0 0 0 0 0 0 0 0 0 0 0 0 0 0 0 0 0 0 0 0 0 0 0 0 0 0 0 0 0 0
0 0 0 0 0 0 0 0 0 0 0 0 0 0 0 0 0 0 0 0 0 0 0 0 0 0 0 0 0 0 0 0 0 0 0 0 -0 -0 -0 -0 0 0 0 0
0 0 0 0 0 0 0 0 0 0 0 0 0 0 0 0 0 0 0 0 0 0 0 0 0 0 0 0 0 0 0 0 0 0 0 -0 -0 -0 -0 0 0 0 0 0
0 0 0 0 0 0 0 0 0 0 0 0 0 0 0 0 0 0 0 0 0 0 0 0 0 0 0 0 0 0 0 0 0 0 0 -0 -0 0 0 0 0 0 0 0
0 0 0 0 0 0 0 0 0 0 0 0 0 0 0 0 0 0 0 0 0 0 0 0 0 0 0 0 0 0 0 0 0 0 -0 -0 -0 0 0 0 0 0 0 0
0 0 0 0 0 0 0 0 0 0 0 0 0 0 0 0 0 0 -0 -0 0 0 0 0 0 0 0 0 0 0 0 -0 0 0 0 0 0 0 0 0 0 0 0 0
0 0 0 0 0 0 0 0 0 0 0 0 0 0 0 0 0 -0 -0 -0 -0 0 0 0 0 0 0 0 0 0 0 -0 0 0 0 0 0 0 0 0 0 0 0 0
0 0 0 0 0 0 0 0 0 0 0 0 0 0 0 -0 -0 -0 -0 -0 -0 0 0 0 0 0 0 0 0 0 0 0 0 0 0 0 0 0 0 0 0 0 0 0
0 0 0 0 0 0 0 0 0 0 0 0 0 0 -0 -0 -0 -0 -0 0 0 0 0 0 0 0 0 0 0 0 0 0 0 0 0 0 0 0 0 0 0 0 0 0
0 0 0 0 0 0 0 0 0 0 0 0 0 -0 -0 -0 -0 -0 0 0 0 0 0 0 0 0 0 0 0 0 0 0 0 0 0 0 0 0 0 0 0 0 0 0
0 0 0 0 0 0 0 0 0 0 0 -0 -0 -0 -0 -0 0 0 0 0 0 0 0 0 0 0 0 0 0 0 0 0 0 0 0 0 0 0 0 0 0 0 0 0
0 0 0 0 0 0 0 0 0 0 -0 -0 -0 -0 -0 0 0 0 0 0 0 0 0 0 0 0 0 0 0 0 0 0 0 0 0 0 0 0 0 0 0 0 0 0
0 0 0 0 0 0 0 0 0 -0 -0 -0 -0 -0 0 0 0 0 0 0 0 0 0 0 0 0 0 0 0 0 0 0 0 0 0 0 0 0 0 0 0 0 0 0
0 0 0 0 0 0 0 0 0 -0 -0 -0 -0 0 0 0 0 0 0 0 0 0 0 0 0 0 0 0 0 0 0 0 0 0 0 0 0 0 0 0 0 0 0 0
0 0 0 0 0 0 0 0 -0 -0 -0 -0 -0 0 0 0 0 0 0 0 0 0 0 0 0 0 0 0 0 0 0 0 0 0 0 0 0 0 0 0 0 0 0 0
0 0 0 0 0 0 0 -0 -0 -0 -0 0 0 0 0 0 0 0 0 0 0 0 0 0 0 0 0 0 0 0 0 0 0 0 0 0 0 0 0 0 0 0 0 0
0 0 0 0 0 0 0 -0 -0 -0 0 0 0 0 0 0 0 0 0 0 0 0 0 0 0 0 0 0 0 0 0 0 0 0 0 0 0 0 0 0 0 0 0 0
0 0 0 0 0 0 0 -0 0 0 0 0 0 0 0 0 0 0 0 0 0 0 0 0 0 0 0 0 0 0 0 0 0 0 0 0 0 0 0 0 0 0 0 0
0 0 -0 -0 -0 0 0 0 0 0 0 0 0 0 0 0 0 0 0 0 0 0 0 0 0 0 0 0 0 0 0 0 0 0 0 0 0 0 0 0 0 0 0 0
0 -0 -0 -0 0 0 0 0 0 0 0 0 0 0 0 0 0 0 0 0 0 0 0 0 0 0 0 0 0 0 0 0 0 0 0 0 0 0 0 0 0 0 0 0
-0 -0 -0 0 0 0 0 0 0 0 0 0 0 0 0 0 0 0 0 0 0 0 0 0 0 0 0 0 0 0 0 0 0 0 0 0 0 0 0 0 0 0 0 0
-0 -0 0 0 0 0 0 0 0 0 0 0 0 0 0 0 0 0 0 0 0 0 0 0 0 0 0 0 0 0 0 0 0 0 0 0 0 0 0 0 0 0 0 0
-0 0 0 0 0 0 0 0 0 0 0 0 0 0 0 0 0 0 0 0 0 0 0 0 0 0 0 0 0 0 0 0 0 0 0 0 0 0 0 0 0 0 0 0
0 0 0 0 0 0 0 0 0 0 0 0 0 0 0 0 0 0 0 0 0 0 0 0 0 0 0 0 0 0 0 0 0 0 0 0 0 0 0 0 0 0 0 0
Wind_Speed
2 2 3 3 6 5 1 2 4 5 9 6 4 3 3 3 3 2 1 2 3 3 3 4 4 4 5 4 5 5 6 7 7 7 7 8 7 8 9 11 10 9 9 9
2 4 6 4 7 6 4 1 2 9 6 2 1 1 1 3 3 1 2 2 3 4 4 5 6 6 6 6 6 6 7 8 9 7 6 7 8 8 10 8 7 7 7 8
1 3 5 2 3 4 7 8 5 4 1 1 2 4 3 2 3 4 1 5 4 3 3 4 5 5 5 6 6 7 8 10 9 7 8 9 9 9 7 5 5 5 6 7
2 2 2 2 3 12 12 8 7 6 2 1 2 4 3 3 4 3 4 4 3 3 5 5 5 7 8 8 8 9 10 9 8 9 8 8 9 5 2 2 3 4 4 5
3 2 3 1 4 2 4 4 1 2 1 2 2 2 4 5 3 4 2 1 2 4 4 5 6 8 9 10 9 10 10 9 9 8 8 9 6 2 1 2 3 5 6 7
4 3 4 3 2 2 3 1 3 1 2 3 2 3 5 1 5 4 2 2 3 4 5 6 7 8 9 9 9 9 9 8 8 7 6 5 3 3 2 3 3 4 5 6
4 3 4 3 4 1 2 5 4 3 4 4 4 6 2 5 4 2 1 1 3 5 5 6 7 8 8 9 8 8 8 7 6 5 3 3 3 3 3 4 4 5 5 7
4 3 5 5 2 3 5 3 3 3 3 4 5 2 3 4 2 1 1 2 4 5 5 6 6 7 7 7 7 6 5 4 4 4 4 5 5 5 4 4 5 6 6 7
4 5 4 3 5 4 5 4 2 1 2 2 2 4 3 1 1 2 3 3 4 5 5 5 6 5 6 8 7 6 4 5 6 6 5 6 6 6 5 6 5 4 5 7
1 2 3 4 3 3 3 3 3 3 4 6 6 5 3 1 1 3 4 3 4 4 5 5 5 6 6 8 6 5 5 5 5 5 6 6 6 5 5 5 5 5 5 5
1 2 1 3 2 2 3 5 6 7 4 4 5 4 1 2 3 4 4 3 3 3 4 6 6 7 6 6 5 5 4 4 5 5 5 5 5 4 4 3 2 4 4 3
3 4 4 4 3 1 2 4 7 8 6 5 5 2 3 4 3 3 3 3 2 3 3 5 6 7 7 6 5 3 2 2 2 3 4 4 4 5 4 6 10 13 11 7
4 4 4 1 2 3 4 6 8 8 7 5 4 4 4 2 3 2 2 2 2 2 3 5 6 8 8 6 6 5 4 4 2 1 2 3 3 4 5 7 10 14 14 11
3 1 1 1 1 4 8 10 10 8 6 4 4 4 2 2 2 2 2 2 1 2 4 6 6 8 9 7 5 1 1 4 4 3 1 2 3 3 4 4 6 8 8 8
4 4 2 2 4 7 9 10 8 5 4 4 5 4 2 1 1 2 0 1 3 4 5 6 7 8 7 6 4 5 4 3 3 3 2 2 3 3 4 5 6 5 4 6
4 5 4 3 5 8 7 7 6 5 4 5 6 3 0 0 0 1 0 3 3 4 6 6 7 7 7 6 7 6 6 7 6 4 4 4 4 5 5 6 6 6 5 3
3 3 2 1 3 6 6 6 7 6 5 6 5 2 1 2 1 0 2 4 5 6 7 7 8 7 3 5 6 5 6 7 8 7 6 5 5 5 5 5 5 6 4 3
3 3 3 4 6 8 8 6 5 5 5 6 5 3 3 3 2 1 2 5 6 7 5 5 4 1 5 6 6 6 6 7 7 7 7 7 6 6 6 6 6 7 5 6
5 6 6 3 9 10 8 6 5 5 7 6 5 4 6 5 2 1 4 5 3 3 4 1 6 8 6 6 8 6 6 7 8 7 7 8 8 7 6 6 6 7 7 6
5 3 10 11 9 7 6 5 6 6 7 7 6 7 7 3 2 4 4 3 2 1 2 6 8 6 6 7 9 7 7 7 7 7 8 7 6 6 6 7 8 7 7 7
9 10 10 8 6 5 5 5 6 7 7 7 9 9 5 2 3 3 1 3 3 4 6 7 6 5 6 7 8 7 7 7 7 7 7 6 6 7 7 7 7 7 7 7
7 7 7 6 5 5 3 5 7 8 8 10 10 7 3 2 3 1 1 1 1 5 5 5 4 8 9 9 7 7 7 8 7 6 6 5 6 7 7 6 7 7 7 7
5 5 5 4 5 3 3 7 9 8 9 10 9 7 2 3 2 3 2 1 2 5 5 5 7 13 13 8 7 7 8 8 7 6 6 6 6 6 6 7 7 7 7 7
5 5 4 3 4 3 4 7 8 6 6 7 6 4 3 1 2 1 2 3 5 6 5 5 11 14 11 7 7 7 7 7 6 6 7 7 6 7 7 7 6 6 7 8
5 4 3 3 3 2 3 8 7 4 4 3 2 2 2 1 3 3 2 3 5 7 6 10 14 12 8 6 6 7 6 6 6 6 6 6 6 7 7 7 7 6 7 7
5 4 3 3 2 1 3 7 5 4 3 1 1 2 2 1 3 4 3 4 5 7 6 6 8 8 7 6 7 7 6 6 7 7 7 6 6 7 7 7 7 7 6 6
4 4 3 2 1 2 4 6 6 5 4 3 2 2 3 3 4 4 4 5 5 6 6 6 6 7 7 7 7 7 7 7 8 8 7 6 6 6 6 7 6 6 6 7
Wind_Direction
104 51 41 11 355 357 6 216 217 171 132 184 188 159 154 165 156 110 34 26 16 353 353 360 355 350 341 329 334 328 312 299 287 281 287 290 285 297 305 307 310 312 312 317
36 26 33 2 324 310 317 326 102 106 106 123 119 150 199 206 204 250 284 97 52 19 18 357 342 336 332 327 318 306 293 285 278 277 296 300 302 310 308 311 316 321 330 329
153 25 46 358 339 60 65 30 72 102 116 3 2 325 299 244 282 317 26 111 82 36 351 333 329 320 303 296 296 294 295 301 309 318 311 309 309 310 317 323 330 339 342 343
136 70 202 192 94 101 96 65 74 100 154 233 288 292 266 290 350 31 83 87 56 345 337 342 339 329 312 305 308 310 311 314 319 313 311 310 308 312 315 315 334 321 316 323
136 168 260 80 19 63 103 84 85 121 218 255 282 328 314 312 74 125 122 80 23 1 345 333 328 320 317 318 322 318 317 321 314 310 310 308 312 309 322 323 308 301 298 307
133 156 233 218 296 319 76 237 269 292 287 290 346 332 280 298 112 99 60 45 20 352 333 326 323 322 322 320 316 315 316 312 305 307 304 308 320 344 342 312 302 306 316 328
157 180 243 214 244 288 149 236 238 230 239 242 221 237 225 117 110 101 77 40 351 345 336 329 320 316 310 312 314 314 312 315 314 318 333 335 336 342 331 330 343 360 357 342
158 177 252 202 192 186 211 216 235 247 246 247 260 274 118 114 97 348 344 343 334 336 333 326 319 315 313 321 320 316 320 340 359 15 35 14 6 357 359 16 40 28 9 2
168 196 218 174 182 195 181 195 211 326 316 339 36 90 79 59 328 317 350 342 323 318 324 325 320 323 333 330 330 337 14 19 9 11 29 24 25 25 31 42 44 30 25 19
123 244 209 188 196 203 197 170 144 123 118 120 138 140 129 156 8 331 343 338 317 318 320 321 322 328 338 332 347 3 17 14 10 24 34 27 28 34 46 35 25 29 32 26
161 266 347 173 211 224 168 152 128 97 86 109 106 106 128 62 16 339 339 329 320 318 331 334 332 322 322 334 355 357 355 3 12 20 24 19 26 30 40 31 37 26 21 54
207 221 184 228 296 297 156 145 137 125 102 81 89 88 57 43 356 340 333 318 320 333 341 324 313 306 310 320 327 340 320 330 354 6 11 20 24 18 13 22 38 52 47 68
223 215 195 161 39 55 104 107 106 113 116 108 81 63 53 11 336 345 315 316 330 345 319 302 300 299 297 291 281 253 207 204 239 281 353 7 16 21 9 359 43 62 65 72
266 146 138 114 131 113 104 101 103 100 99 99 85 68 57 18 14 342 331 332 342 311 292 295 300 295 296 309 331 8 127 174 192 208 239 311 342 355 8 23 44 58 61 66
35 60 98 63 83 113 117 118 117 117 120 105 92 89 68 59 344 298 312 345 328 307 298 303 306 308 330 349 30 62 81 86 103 120 124 91 46 38 41 46 52 58 50 47
39 50 49 68 128 139 127 128 135 144 145 121 108 108 85 152 248 170 314 349 339 310 306 310 311 321 344 17 48 51 57 67 76 80 81 73 59 49 42 42 40 46 51 42
359 341 356 341 152 142 139 147 150 154 137 123 127 153 134 126 136 31 336 326 306 291 290 295 298 309 347 67 68 62 58 53 60 64 62 61 56 53 50 45 39 47 46 55
306 286 271 243 172 148 146 149 151 145 132 135 148 162 153 167 164 186 284 301 304 305 299 284 286 63 85 74 70 65 61 59 60 60 61 59 55 49 46 40 32 37 30 42
264 256 255 212 144 143 146 151 156 151 140 140 153 152 163 153 143 278 301 304 318 20 354 51 89 76 66 76 79 73 71 69 66 61 61 58 52 43 42 39 36 33 37 35
251 155 117 110 119 132 141 149 143 139 139 139 136 151 163 165 234 282 296 317 360 35 39 64 66 57 60 74 79 76 75 73 70 66 64 58 51 43 38 39 38 34 33 31
129 115 110 117 129 139 143 144 138 141 142 140 146 179 200 218 257 284 351 52 355 39 63 58 53 61 81 84 81 79 79 77 73 70 66 60 56 51 44 37 35 37 33 28
107 109 114 131 141 146 162 149 140 139 141 139 153 206 239 297 311 335 110 105 30 72 68 52 57 93 95 89 84 81 79 78 74 69 63 60 62 61 51 41 37 34 30 29
111 110 122 146 146 150 150 143 144 147 145 151 168 201 230 270 247 135 114 4 89 93 76 55 71 91 88 86 87 85 83 81 76 73 69 65 63 62 58 50 40 34 30 27
118 120 128 135 119 119 125 145 147 149 155 165 178 203 241 230 66 69 120 127 116 94 75 73 87 87 87 89 89 87 86 82 76 71 70 66 61 61 57 51 45 36 31 29
128 125 129 139 138 157 146 142 143 164 165 168 204 238 295 319 137 153 136 120 103 86 80 94 93 88 87 89 91 91 90 89 87 81 74 68 66 65 60 54 49 42 36 33
142 139 156 168 172 197 155 141 160 190 165 182 269 283 287 159 127 124 114 95 92 99 99 93 92 92 89 89 92 92 89 83 79 78 75 68 67 67 63 56 49 43 36 32
122 135 155 173 239 221 168 151 170 194 182 181 236 245 162 139 129 119 98 83 86 94 95 94 96 98 99 96 93 89 83 80 82 83 77 73 71 68 65 60 53 44 39 37